Regional Weather Roundup
Issued by NWS

Home | Current Version | Previous Version | Text Only | Print | Product List | Glossary On
Versions: 1 2 3 4 5 6 7 8 9 10 11 12 13 14 15 16 17 18 19 20 21 22 23 24 25 26 27 28 29 30 31 32 33 34 35 36 37 38 39 40 41 42 43 44 45 46 47 48 49 50
609
ASUS43 KTOP 250908
RWRKS

WEATHER ROUNDUP FOR KANSAS
NATIONAL WEATHER SERVICE GOODLAND KS
400 AM CDT THU AUG 25 2016

NOTE:  "FAIR" INDICATES FEW OR NO CLOUDS BELOW 12,000 FEET WITH NO
SIGNIFICANT WEATHER AND/OR OBSTRUCTIONS TO VISIBILITY.

KSZ001>006-013>018-027>032-041>047-251000-
NORTHWEST KANSAS

CITY           SKY/WX    TMP DP  RH WIND       PRES   REMARKS
GOODLAND       CLOUDY    54  49  83 N3        30.18F
HAYS           CLOUDY    61  52  72 NW8       30.13R
HILL CITY      RAIN      59  58  96 CALM      30.16S FOG
RUSSELL        HVY RAIN  61  59  93 W14       30.09R FOG
$$

KSZ061>065-074>080-084>089-251000-
SOUTHWEST KANSAS

CITY           SKY/WX    TMP DP  RH WIND       PRES   REMARKS
DODGE CITY     CLOUDY    61  61 100 N10       30.09R
ELKHART          N/A     60  56  87 N3          N/A
GARDEN CITY    CLOUDY    60  57  89 NE15      30.10F
GREAT BEND     CLOUDY    63  55  77 E3        30.08F THUNDER
LIBERAL        MOCLDY    66  61  82 N7        30.10R
PRATT          TSTM      63  61  94 NE8       30.05F
$$

KSZ066>073-081>083-090>101-251000-
SOUTHEAST KANSAS

CITY           SKY/WX    TMP DP  RH WIND       PRES   REMARKS
CHANUTE        CLOUDY    68  66  93 E3        30.05F
COFFEYVILLE    CLOUDY    71  65  81 E5        30.05F
HUTCHINSON     CLOUDY    68  66  93 N3        30.03R
MEDICINE LODGE   N/A     67  65  93 N9G22     30.00
NEWTON         LGT RAIN  69  69 100 E5        30.03S
PARSONS        MOCLDY    69  66  90 CALM      30.06F
WICHITA INTL   CLOUDY    75  68  78 NW14G20   30.04R THUNDER
WICHITA JABRA  CLOUDY    71  69  93 NW7       30.03R
WICHITA MCCONL CLOUDY    72  68  86 N3        30.02R
WINFIELD       CLOUDY    70  66  87 SE6       30.02F
$$

KSZ007>012-019>026-033>040-048>060-102>105-251000-
NORTHEAST KANSAS

CITY           SKY/WX    TMP DP  RH WIND       PRES   REMARKS
CONCORDIA      CLOUDY    63  59  87 NE5       30.08S THUNDER
EMPORIA        CLOUDY    70  69  97 S8        30.03F
LAWRENCE       LGT RAIN  71 N/A N/A MISG      30.05F
MANHATTAN      LGT RAIN  69  66  90 NE3       30.05S
MARYSVILLE     CLOUDY    63  61  94 N7        30.08R
OLATHE IND     LGT RAIN  70  69  97 NE5       30.05F
OLATHE EXE     LGT RAIN  69  69 100 NE5       30.04F
SALINA         CLOUDY    68  63  84 NE7       30.05S
TOPEKA BILLARD LGT RAIN  71  70  96 NW3       30.05S
TOPEKA FORBES  HVY RAIN  72  70  93 S3        30.06R
$$




USA.gov is the U.S. government's official web portal to all federal, state and local government web resources and services.